NORTHERN NASSAU  -  Areal Flood Advisory Areal Flood Advisory     Flash Flood Watch Flash Flood Watch     Rip Current Statement Rip Current Statement        NORTHERN QUEENS  -  Areal Flood Advisory Areal Flood Advisory     Flash Flood Watch Flash Flood Watch     Rip Current Statement Rip Current Statement        SOUTHERN NASSAU  -  Areal Flood Advisory Areal Flood Advisory     Flash Flood Watch Flash Flood Watch     Rip Current Statement Rip Current Statement        SOUTHERN QUEENS  -  Areal Flood Advisory Areal Flood Advisory     Flash Flood Watch Flash Flood Watch     Rip Current Statement Rip Current Statement        NORTHEAST SUFFOLK  -  Rip Current Statement Rip Current Statement        NORTHWEST SUFFOLK  -  Rip Current Statement Rip Current Statement        SOUTHEAST SUFFOLK  -  Rip Current Statement Rip Current Statement        SOUTHWEST SUFFOLK  -  Rip Current Statement Rip Current Statement      

Active alerts

Northern Queens
  Details for Northern Queens Areal Flood Advisory  +2 additional alerts
Southern Queens
  Details for Southern Queens Areal Flood Advisory  +2 additional alerts
Northern Nassau
  Details for Northern Nassau Areal Flood Advisory  +2 additional alerts
Southern Nassau
  Details for Southern Nassau Areal Flood Advisory  +2 additional alerts
Northwest Suffolk
  Details for Northwest Suffolk Rip Current Statement
Southwest Suffolk
  Details for Southwest Suffolk Rip Current Statement
Northeast Suffolk
  Details for Northeast Suffolk Rip Current Statement
Southeast Suffolk
  Details for Southeast Suffolk Rip Current Statement


WXM80 ListenWXM80 Stop

You find our weather info also at:

UK Metoffice

WeatherCloud

Weather Underground

Northeastern Weather Network

AWEKAS

Citizen Weather Observer Program (CWOP)

HAMweather, WeatherForYou, PWS Weather


Weather Underground History page Text

Daily Summary for November 6, 2017 Units:  English    Metric   Both
« Previous Day
Next Day »
Daily Weekly Monthly Yearly Custom
  High: Low: Average:
Temperature: 65.7 °F 49.2 °F 60.9 °F
Dew Point: 63.3 °F 42.6 °F 58.5 °F
Humidity: 98 % 78 % 92 %
Wind Speed: 11.6 mph 0.0 mph 2.7 mph
Wind Gust: 18.4 mph - -
Wind:- - SSW
Pressure: 30.12 in 29.85 in -
Precipitation: 0.03 in    
Historical Graphs
 
 
Tabular Data for November 6, 2017
Time Temperature Dew Point Pressure Wind Wind Speed Wind Gust Humidity Rainfall Rate (Hourly)
00:02 60.4 °F 59.5 °F 30.01 in SW 0.7 mph 3.5 mph 97 % 0.00 in
00:07 60.4 °F 59.5 °F 30.02 in WSW 1.2 mph 3.5 mph 97 % 0.00 in
00:12 60.3 °F 59.4 °F 30.01 in WSW 0.1 mph 1.0 mph 97 % 0.00 in
00:17 60.3 °F 59.4 °F 30.02 in Calm   1.2 mph 97 % 0.00 in
00:22 60.2 °F 59.3 °F 30.00 in Calm     97 % 0.00 in
00:27 60.1 °F 59.2 °F 30.01 in Calm     97 % 0.00 in
00:32 60.1 °F 59.2 °F 30.01 in Calm     97 % 0.00 in
00:37 60.0 °F 59.1 °F 30.01 in Calm     97 % 0.00 in
00:42 59.9 °F 59.0 °F 30.00 in Calm     97 % 0.00 in
00:47 59.8 °F 58.9 °F 29.98 in Calm     97 % 0.00 in
00:52 59.7 °F 58.8 °F 29.99 in Calm   1.0 mph 97 % 0.00 in
00:57 59.6 °F 58.7 °F 29.99 in Calm   1.2 mph 97 % 0.00 in
01:02 59.5 °F 58.6 °F 29.99 in Calm   1.2 mph 97 % 0.00 in
01:07 59.4 °F 58.5 °F 29.99 in WSW 0.1 mph 4.0 mph 97 % 0.00 in
01:12 59.4 °F 58.5 °F 30.00 in SW 2.2 mph 4.6 mph 97 % 0.00 in
01:17 59.3 °F 58.4 °F 29.99 in West 0.8 mph 4.0 mph 97 % 0.00 in
01:23 59.3 °F 58.4 °F 29.99 in Calm   1.2 mph 97 % 0.00 in
01:28 59.3 °F 58.4 °F 30.00 in Calm     97 % 0.00 in
01:33 59.3 °F 58.4 °F 29.98 in Calm   1.2 mph 97 % 0.00 in
01:38 59.3 °F 58.4 °F 29.99 in Calm     97 % 0.00 in
01:43 59.3 °F 58.4 °F 29.99 in Calm   1.2 mph 97 % 0.01 in
01:48 59.3 °F 58.4 °F 29.99 in SW 0.1 mph 1.2 mph 97 % 0.01 in
01:53 59.2 °F 58.3 °F 29.99 in Calm   1.0 mph 97 % 0.01 in
01:58 59.2 °F 58.3 °F 29.99 in SW 0.1 mph 1.2 mph 97 % 0.01 in
02:03 59.3 °F 58.4 °F 29.99 in SW 0.5 mph 2.3 mph 97 % 0.01 in
02:08 59.3 °F 58.4 °F 29.97 in SW 0.4 mph 2.3 mph 97 % 0.01 in
02:13 59.4 °F 58.5 °F 29.97 in SW 0.1 mph 1.2 mph 97 % 0.01 in
02:18 59.4 °F 58.5 °F 29.99 in SSE 0.5 mph 2.3 mph 97 % 0.01 in
02:23 59.6 °F 59.0 °F 29.98 in SW 0.3 mph 2.3 mph 98 % 0.01 in
02:28 59.7 °F 59.1 °F 29.98 in SSW 1.6 mph 5.8 mph 98 % 0.01 in
02:33 59.8 °F 59.2 °F 29.99 in SW 1.7 mph 3.5 mph 98 % 0.01 in
02:36 59.9 °F 59.3 °F 29.98 in SE 0.4 mph 3.5 mph 98 % 0.01 in
02:41 60.0 °F 59.4 °F 29.98 in South 0.9 mph 4.6 mph 98 % 0.01 in
02:46 60.1 °F 59.5 °F 29.99 in South 0.1 mph 2.3 mph 98 % 0.00 in
02:51 60.2 °F 59.6 °F 29.99 in SSW 0.1 mph 2.3 mph 98 % 0.00 in
02:56 60.3 °F 59.7 °F 29.97 in Calm     98 % 0.00 in
03:01 60.3 °F 59.7 °F 29.97 in SSW 1.7 mph 3.5 mph 98 % 0.00 in
03:06 60.3 °F 59.7 °F 29.98 in SSW 0.7 mph 2.3 mph 98 % 0.00 in
03:11 60.4 °F 59.8 °F 29.96 in SW 1.2 mph 5.8 mph 98 % 0.00 in
03:16 60.5 °F 59.9 °F 29.97 in SW 1.6 mph 3.5 mph 98 % 0.00 in
03:22 60.6 °F 60.0 °F 29.97 in SW 2.6 mph 9.2 mph 98 % 0.00 in
03:27 60.7 °F 60.1 °F 29.97 in SW 0.9 mph 4.0 mph 98 % 0.00 in
03:32 60.8 °F 60.2 °F 29.96 in SE 2.3 mph 5.8 mph 98 % 0.00 in
03:37 60.9 °F 60.3 °F 29.97 in SSE 0.3 mph 2.3 mph 98 % 0.00 in
03:42 60.9 °F 60.3 °F 29.96 in Calm   2.3 mph 98 % 0.00 in
03:47 61.0 °F 60.4 °F 29.95 in SW 0.5 mph 2.3 mph 98 % 0.00 in
03:52 61.1 °F 60.5 °F 29.96 in SW 1.1 mph 11.5 mph 98 % 0.00 in
03:57 61.1 °F 60.5 °F 29.95 in WSW 1.4 mph 3.5 mph 98 % 0.00 in
04:02 61.2 °F 60.6 °F 29.95 in West 0.3 mph 3.5 mph 98 % 0.00 in
04:07 61.3 °F 60.7 °F 29.95 in SW 0.9 mph 4.0 mph 98 % 0.00 in
04:12 61.3 °F 60.7 °F 29.96 in South 1.2 mph 2.0 mph 98 % 0.00 in
04:17 61.4 °F 60.8 °F 29.96 in SSW 1.5 mph 6.9 mph 98 % 0.00 in
04:22 61.4 °F 60.8 °F 29.95 in SW 0.5 mph 3.0 mph 98 % 0.00 in
04:27 61.5 °F 60.9 °F 29.96 in WNW 3.3 mph 4.6 mph 98 % 0.00 in
04:32 61.5 °F 60.9 °F 29.95 in South 1.3 mph 3.5 mph 98 % 0.00 in
04:37 61.6 °F 61.0 °F 29.95 in South 0.3 mph 3.5 mph 98 % 0.00 in
04:42 61.6 °F 61.0 °F 29.94 in SSW 4.0 mph 4.0 mph 98 % 0.00 in
04:48 61.7 °F 61.1 °F 29.95 in South 3.5 mph 6.0 mph 98 % 0.00 in
04:53 61.7 °F 61.1 °F 29.94 in SSW 3.1 mph 5.8 mph 98 % 0.00 in
04:58 61.7 °F 61.1 °F 29.95 in SW 3.4 mph 5.8 mph 98 % 0.00 in
05:03 61.8 °F 61.2 °F 29.95 in SW 2.3 mph 8.1 mph 98 % 0.00 in
05:08 61.8 °F 61.2 °F 29.95 in South 4.6 mph 5.8 mph 98 % 0.00 in
05:13 61.9 °F 61.3 °F 29.95 in SSW 3.3 mph 6.9 mph 98 % 0.00 in
05:18 62.0 °F 61.4 °F 29.95 in South 8.8 mph 16.1 mph 98 % 0.00 in
05:23 62.0 °F 61.4 °F 29.95 in SSW 5.6 mph 11.5 mph 98 % 0.00 in
05:28 62.0 °F 61.4 °F 29.94 in SW 3.9 mph 6.9 mph 98 % 0.00 in
05:33 62.1 °F 61.5 °F 29.94 in SSW 4.0 mph 8.1 mph 98 % 0.00 in
05:43 62.2 °F 61.6 °F 29.95 in WSW 5.9 mph 11.5 mph 98 % 0.00 in
05:48 62.2 °F 61.6 °F 29.94 in WSW 3.3 mph 9.2 mph 98 % 0.00 in
05:58 62.3 °F 61.7 °F 29.94 in SSW 0.5 mph 6.9 mph 98 % 0.00 in
06:03 62.3 °F 61.7 °F 29.94 in WSW 3.2 mph 6.9 mph 98 % 0.00 in
06:08 62.4 °F 61.5 °F 29.94 in South 1.7 mph 6.9 mph 97 % 0.00 in
06:13 62.4 °F 61.5 °F 29.93 in SSW 2.4 mph 6.9 mph 97 % 0.00 in
06:18 62.4 °F 61.5 °F 29.92 in SW 1.9 mph 3.5 mph 97 % 0.00 in
06:23 62.5 °F 61.6 °F 29.92 in SSW 2.4 mph 6.9 mph 97 % 0.00 in
06:28 62.5 °F 61.6 °F 29.93 in SW 1.9 mph 4.6 mph 97 % 0.00 in
06:33 62.5 °F 61.6 °F 29.92 in WSW 5.3 mph 9.2 mph 97 % 0.01 in
06:38 62.5 °F 61.6 °F 29.92 in SW 0.3 mph 5.8 mph 97 % 0.01 in
06:43 62.6 °F 61.7 °F 29.93 in SSW 4.5 mph 10.4 mph 97 % 0.01 in
06:48 62.6 °F 61.7 °F 29.93 in SSW 1.4 mph 3.5 mph 97 % 0.01 in
06:53 62.7 °F 61.8 °F 29.93 in SSW 1.7 mph 4.0 mph 97 % 0.01 in
06:58 62.7 °F 61.8 °F 29.93 in SW 2.1 mph 3.5 mph 97 % 0.01 in
07:03 62.7 °F 61.8 °F 29.93 in SSW 3.8 mph 6.0 mph 97 % 0.01 in
07:08 62.7 °F 61.8 °F 29.92 in SW 1.7 mph 3.5 mph 97 % 0.01 in
07:13 62.8 °F 61.9 °F 29.92 in SW 0.3 mph 3.5 mph 97 % 0.01 in
07:18 62.8 °F 61.9 °F 29.92 in SW 2.6 mph 7.0 mph 97 % 0.01 in
07:23 62.8 °F 61.9 °F 29.93 in SW 1.7 mph 4.6 mph 97 % 0.01 in
07:28 62.9 °F 62.0 °F 29.94 in SSW 0.3 mph 3.0 mph 97 % 0.01 in
07:33 62.9 °F 62.0 °F 29.93 in SSW 4.6 mph 6.9 mph 97 % 0.00 in
07:38 62.9 °F 62.0 °F 29.93 in SW 1.8 mph 3.5 mph 97 % 0.00 in
07:43 63.0 °F 61.8 °F 29.92 in SSW 3.6 mph 6.0 mph 96 % 0.00 in
07:48 63.0 °F 61.8 °F 29.93 in SSW 2.1 mph 3.5 mph 96 % 0.00 in
07:53 63.1 °F 61.9 °F 29.92 in SW 1.2 mph 4.6 mph 96 % 0.00 in
07:58 63.1 °F 62.2 °F 29.92 in South 1.3 mph 3.5 mph 97 % 0.00 in
08:03 63.1 °F 61.9 °F 29.92 in WNW 2.4 mph 8.0 mph 96 % 0.00 in
08:08 63.2 °F 62.0 °F 29.92 in SW 2.0 mph 4.6 mph 96 % 0.00 in
08:13 63.2 °F 62.0 °F 29.92 in SW 2.2 mph 4.6 mph 96 % 0.00 in
08:18 63.3 °F 62.1 °F 29.92 in WSW 3.4 mph 6.9 mph 96 % 0.00 in
08:23 63.4 °F 62.2 °F 29.92 in SSW 1.0 mph 3.5 mph 96 % 0.00 in
08:28 63.4 °F 62.2 °F 29.92 in SW 3.6 mph 6.0 mph 96 % 0.00 in
08:33 63.4 °F 62.2 °F 29.92 in SW 2.2 mph 3.5 mph 96 % 0.00 in
08:38 63.5 °F 62.3 °F 29.92 in SSE 1.8 mph 5.8 mph 96 % 0.00 in
08:43 63.5 °F 62.3 °F 29.92 in SW 4.3 mph 5.8 mph 96 % 0.00 in
08:48 63.6 °F 62.4 °F 29.93 in SSW 1.8 mph 4.6 mph 96 % 0.00 in
08:53 63.6 °F 62.4 °F 29.92 in SSW 5.8 mph 5.8 mph 96 % 0.00 in
08:58 63.6 °F 62.4 °F 29.93 in SSW 3.6 mph 6.0 mph 96 % 0.00 in
09:03 63.6 °F 62.4 °F 29.92 in West 4.6 mph 11.5 mph 96 % 0.00 in
09:08 63.6 °F 62.4 °F 29.92 in ENE 1.9 mph 4.6 mph 96 % 0.00 in
09:13 63.6 °F 62.4 °F 29.92 in SW 4.2 mph 12.0 mph 96 % 0.00 in
09:18 63.6 °F 62.4 °F 29.93 in SW 2.2 mph 9.2 mph 96 % 0.00 in
09:23 63.6 °F 62.4 °F 29.92 in WNW 1.4 mph 4.6 mph 96 % 0.00 in
09:28 63.6 °F 62.4 °F 29.93 in WSW 0.7 mph 8.1 mph 96 % 0.00 in
09:33 63.6 °F 62.4 °F 29.92 in WSW 2.2 mph 5.8 mph 96 % 0.00 in
09:38 63.6 °F 62.4 °F 29.93 in WSW 0.9 mph 4.6 mph 96 % 0.00 in
09:44 63.7 °F 62.5 °F 29.93 in South 3.0 mph 5.8 mph 96 % 0.00 in
09:45 63.7 °F 62.5 °F 29.93 in South 1.0 mph 4.0 mph 96 % 0.00 in
09:50 63.8 °F 62.6 °F 29.92 in SSW 1.7 mph 3.5 mph 96 % 0.00 in
09:56 63.7 °F 62.5 °F 29.92 in SW 1.0 mph 7.0 mph 96 % 0.00 in
10:01 63.7 °F 62.5 °F 29.92 in WSW 0.9 mph 5.8 mph 96 % 0.00 in
10:06 63.7 °F 62.5 °F 29.92 in WSW 0.4 mph 3.5 mph 96 % 0.00 in
10:11 63.7 °F 62.5 °F 29.91 in WSW 2.8 mph 10.4 mph 96 % 0.00 in
10:16 63.7 °F 62.5 °F 29.92 in SW 2.1 mph 3.5 mph 96 % 0.00 in
10:21 63.7 °F 62.5 °F 29.92 in SW 0.2 mph 3.5 mph 96 % 0.00 in
10:26 63.7 °F 62.5 °F 29.92 in WSW 1.4 mph 3.5 mph 96 % 0.00 in
10:31 63.7 °F 62.5 °F 29.92 in WSW 3.7 mph 6.9 mph 96 % 0.00 in
10:36 63.8 °F 62.6 °F 29.93 in Calm   2.3 mph 96 % 0.00 in
10:43 63.7 °F 62.5 °F 29.92 in WSW 5.6 mph 9.0 mph 96 % 0.00 in
10:48 63.7 °F 62.5 °F 29.91 in SSW 2.0 mph 4.0 mph 96 % 0.00 in
10:53 63.7 °F 62.5 °F 29.91 in WSW 1.4 mph 8.1 mph 96 % 0.00 in
10:58 63.7 °F 62.5 °F 29.92 in SW 3.0 mph 4.6 mph 96 % 0.00 in
11:03 63.7 °F 62.5 °F 29.91 in SW 0.7 mph 3.5 mph 96 % 0.00 in
11:08 63.7 °F 62.5 °F 29.91 in WSW 0.2 mph 2.3 mph 96 % 0.00 in
11:13 63.7 °F 62.5 °F 29.90 in WSW 1.8 mph 8.1 mph 96 % 0.00 in
11:18 63.8 °F 62.6 °F 29.89 in SSW 0.3 mph 2.3 mph 96 % 0.00 in
11:23 63.8 °F 62.6 °F 29.89 in SW 2.2 mph 3.5 mph 96 % 0.00 in
11:28 63.9 °F 62.7 °F 29.89 in SW 2.0 mph 5.8 mph 96 % 0.00 in
11:33 64.0 °F 62.8 °F 29.89 in SSW 3.6 mph 5.0 mph 96 % 0.00 in
11:38 64.0 °F 62.8 °F 29.90 in West 3.9 mph 6.0 mph 96 % 0.00 in
11:43 64.1 °F 62.6 °F 29.90 in SW 2.6 mph 5.0 mph 95 % 0.00 in
11:48 64.1 °F 62.6 °F 29.89 in WSW 2.8 mph 4.0 mph 95 % 0.00 in
11:54 64.3 °F 62.8 °F 29.89 in SW 4.0 mph 6.9 mph 95 % 0.00 in
11:58 64.4 °F 62.9 °F 29.90 in WSW 3.0 mph 7.0 mph 95 % 0.00 in
12:03 64.5 °F 62.7 °F 29.89 in SSW 3.8 mph 8.1 mph 94 % 0.00 in
12:08 64.5 °F 62.7 °F 29.89 in WSW 2.3 mph 5.0 mph 94 % 0.00 in
12:13 64.7 °F 62.9 °F 29.89 in WSW 1.1 mph 3.5 mph 94 % 0.00 in
12:18 64.7 °F 62.9 °F 29.88 in WSW 5.4 mph 11.5 mph 94 % 0.00 in
12:23 64.8 °F 62.7 °F 29.89 in SW 5.7 mph 9.2 mph 93 % 0.01 in
12:28 64.9 °F 62.8 °F 29.90 in South 2.3 mph 4.6 mph 93 % 0.01 in
12:33 64.9 °F 62.5 °F 29.89 in Calm   1.2 mph 92 % 0.01 in
12:38 64.9 °F 62.5 °F 29.88 in WSW 0.2 mph 3.5 mph 92 % 0.01 in
12:43 65.0 °F 62.6 °F 29.88 in WSW 2.5 mph 3.5 mph 92 % 0.01 in
12:48 65.0 °F 62.6 °F 29.87 in West 1.8 mph 3.5 mph 92 % 0.01 in
12:53 65.0 °F 62.6 °F 29.89 in Calm   1.2 mph 92 % 0.01 in
12:59 65.1 °F 62.7 °F 29.87 in Calm     92 % 0.01 in
13:04 65.2 °F 63.1 °F 29.88 in WSW 2.3 mph 3.5 mph 93 % 0.01 in
13:09 65.4 °F 63.3 °F 29.88 in WSW 2.8 mph 5.8 mph 93 % 0.01 in
13:14 65.5 °F 63.1 °F 29.88 in SSW 0.8 mph 3.5 mph 92 % 0.01 in
13:19 65.5 °F 62.8 °F 29.89 in SW 0.8 mph 5.0 mph 91 % 0.01 in
13:24 65.5 °F 62.8 °F 29.89 in WSW 2.7 mph 5.0 mph 91 % 0.00 in
13:29 65.6 °F 62.9 °F 29.88 in West 1.9 mph 4.0 mph 91 % 0.00 in
13:34 65.6 °F 62.6 °F 29.89 in SW 1.9 mph 5.0 mph 90 % 0.00 in
13:39 65.6 °F 62.6 °F 29.89 in SW 0.8 mph 2.3 mph 90 % 0.00 in
13:44 65.6 °F 62.6 °F 29.88 in WSW 1.6 mph 4.0 mph 90 % 0.00 in
13:49 65.6 °F 62.6 °F 29.88 in SW 0.4 mph 3.5 mph 90 % 0.00 in
13:54 65.6 °F 62.6 °F 29.88 in Calm     90 % 0.00 in
13:59 65.7 °F 62.7 °F 29.87 in WSW 0.2 mph 3.5 mph 90 % 0.00 in
14:04 65.6 °F 62.6 °F 29.87 in SW 1.3 mph 2.3 mph 90 % 0.00 in
14:09 65.6 °F 62.6 °F 29.88 in SW 1.3 mph 5.0 mph 90 % 0.00 in
14:14 65.5 °F 62.2 °F 29.89 in SW 1.0 mph 3.5 mph 89 % 0.00 in
14:20 65.4 °F 62.1 °F 29.89 in SW 1.7 mph 3.0 mph 89 % 0.00 in
14:25 65.4 °F 62.1 °F 29.89 in SW 2.4 mph 3.5 mph 89 % 0.00 in
14:29 65.3 °F 62.0 °F 29.87 in SSW 0.4 mph 1.2 mph 89 % 0.00 in
14:34 65.3 °F 62.0 °F 29.89 in SSW 1.0 mph 3.5 mph 89 % 0.00 in
14:39 65.3 °F 62.0 °F 29.89 in WSW 2.2 mph 3.5 mph 89 % 0.00 in
14:43 65.3 °F 62.3 °F 29.90 in WSW 1.3 mph 3.5 mph 90 % 0.00 in
14:48 65.2 °F 61.9 °F 29.90 in WSW 1.2 mph 3.5 mph 89 % 0.00 in
14:53 65.2 °F 62.2 °F 29.89 in WSW 1.6 mph 4.0 mph 90 % 0.00 in
14:55 65.2 °F 61.9 °F 29.90 in WSW 0.2 mph 3.5 mph 89 % 0.00 in
15:00 65.2 °F 61.9 °F 29.89 in SW 2.8 mph 5.0 mph 89 % 0.00 in
15:05 65.2 °F 61.9 °F 29.90 in SSW 1.5 mph 3.5 mph 89 % 0.00 in
15:10 65.1 °F 61.8 °F 29.90 in Calm   1.2 mph 89 % 0.00 in
15:15 65.1 °F 61.8 °F 29.90 in Calm   2.3 mph 89 % 0.00 in
15:20 65.1 °F 61.8 °F 29.91 in West 2.2 mph 3.5 mph 89 % 0.00 in
15:25 65.0 °F 61.7 °F 29.91 in SSW 1.3 mph 6.0 mph 89 % 0.00 in
15:31 65.0 °F 62.0 °F 29.90 in SW 1.0 mph 5.0 mph 90 % 0.00 in
15:36 64.9 °F 61.9 °F 29.90 in SW 2.0 mph 5.0 mph 90 % 0.00 in
15:41 64.9 °F 61.9 °F 29.90 in SW 1.8 mph 3.5 mph 90 % 0.00 in
15:46 64.8 °F 61.8 °F 29.88 in Calm   5.0 mph 90 % 0.00 in
15:51 64.7 °F 61.7 °F 29.88 in Calm   3.0 mph 90 % 0.00 in
15:56 64.7 °F 61.7 °F 29.89 in WSW 0.1 mph   90 % 0.00 in
16:01 64.6 °F 61.6 °F 29.89 in WSW 1.1 mph 3.5 mph 90 % 0.00 in
16:06 64.5 °F 61.5 °F 29.88 in Calm   2.3 mph 90 % 0.00 in
16:10 64.4 °F 61.7 °F 29.88 in Calm   2.3 mph 91 % 0.00 in
16:15 64.3 °F 61.6 °F 29.88 in Calm     91 % 0.00 in
16:21 64.2 °F 61.6 °F 29.89 in Calm   1.0 mph 91 % 0.00 in
16:26 64.1 °F 61.4 °F 29.89 in Calm   3.0 mph 91 % 0.00 in
16:31 64.0 °F 61.3 °F 29.89 in WSW 1.0 mph 4.0 mph 91 % 0.00 in
16:36 63.9 °F 61.2 °F 29.89 in Calm   1.0 mph 91 % 0.00 in
16:41 63.7 °F 61.0 °F 29.89 in SW 2.0 mph 4.0 mph 91 % 0.00 in
16:46 63.6 °F 60.9 °F 29.90 in SW 1.0 mph 3.0 mph 91 % 0.00 in
16:51 63.4 °F 60.7 °F 29.91 in SW 2.0 mph 5.0 mph 91 % 0.00 in
16:56 63.3 °F 60.6 °F 29.91 in SW 1.0 mph 5.0 mph 91 % 0.00 in
17:01 63.1 °F 60.7 °F 29.91 in SSW 0.2 mph 1.2 mph 92 % 0.00 in
17:06 63.0 °F 60.6 °F 29.91 in WSW 0.4 mph 3.5 mph 92 % 0.00 in
17:11 63.0 °F 60.6 °F 29.91 in WSW 0.4 mph 1.2 mph 92 % 0.00 in
17:16 62.9 °F 60.5 °F 29.92 in West 1.2 mph 3.5 mph 92 % 0.00 in
17:21 62.8 °F 60.4 °F 29.92 in West 0.6 mph 3.5 mph 92 % 0.00 in
17:26 62.7 °F 60.6 °F 29.93 in WSW 0.3 mph 2.3 mph 93 % 0.00 in
17:31 62.6 °F 60.5 °F 29.92 in West 0.4 mph 2.3 mph 93 % 0.00 in
17:36 62.6 °F 60.5 °F 29.93 in WSW 0.2 mph 1.2 mph 93 % 0.00 in
17:41 62.5 °F 60.4 °F 29.92 in WSW 1.0 mph 3.5 mph 93 % 0.00 in
17:46 62.5 °F 60.4 °F 29.93 in WSW 2.3 mph 4.6 mph 93 % 0.00 in
17:51 62.5 °F 60.7 °F 29.93 in WSW 5.6 mph 8.1 mph 94 % 0.00 in
17:56 62.5 °F 60.7 °F 29.94 in West 4.2 mph 11.5 mph 94 % 0.00 in
18:01 62.3 °F 60.2 °F 29.95 in West 2.5 mph 10.4 mph 93 % 0.00 in
18:06 62.3 °F 59.9 °F 29.95 in NW 7.6 mph 12.7 mph 92 % 0.00 in
18:12 62.3 °F 59.6 °F 29.95 in NW 6.4 mph 12.7 mph 91 % 0.00 in
18:17 62.2 °F 59.5 °F 29.96 in WNW 6.4 mph 13.8 mph 91 % 0.00 in
18:22 62.1 °F 59.1 °F 29.96 in NNW 5.0 mph 11.5 mph 90 % 0.00 in
18:27 62.0 °F 58.7 °F 29.97 in WNW 2.5 mph 9.2 mph 89 % 0.00 in
18:32 61.9 °F 58.6 °F 29.97 in NNE 5.5 mph 11.5 mph 89 % 0.00 in
18:37 61.8 °F 58.5 °F 29.98 in NNE 3.4 mph 6.0 mph 89 % 0.00 in
18:42 61.7 °F 58.4 °F 29.98 in NNW 4.5 mph 6.9 mph 89 % 0.00 in
18:45 61.6 °F 58.3 °F 29.98 in North 3.9 mph 8.1 mph 89 % 0.00 in
18:50 61.3 °F 57.4 °F 29.99 in NNE 7.6 mph 11.5 mph 87 % 0.00 in
18:55 61.0 °F 57.1 °F 29.99 in North 8.1 mph 10.0 mph 87 % 0.00 in
19:00 60.7 °F 56.8 °F 30.00 in North 6.8 mph 11.5 mph 87 % 0.00 in
19:05 60.2 °F 56.3 °F 30.00 in NNE 7.3 mph 14.0 mph 87 % 0.00 in
19:10 59.8 °F 55.9 °F 30.00 in NE 7.6 mph 11.0 mph 87 % 0.00 in
19:16 59.5 °F 55.6 °F 30.00 in NNE 6.0 mph 13.0 mph 87 % 0.00 in
19:21 59.2 °F 55.4 °F 30.01 in NNE 6.0 mph 12.0 mph 87 % 0.00 in
19:26 59.1 °F 55.5 °F 30.01 in NNE 5.0 mph 9.0 mph 88 % 0.00 in
19:31 58.9 °F 55.3 °F 30.02 in North 6.0 mph 10.0 mph 88 % 0.00 in
19:36 58.7 °F 54.8 °F 30.02 in NNW 5.0 mph 10.0 mph 87 % 0.00 in
19:41 58.5 °F 54.3 °F 30.02 in NNW 2.0 mph 9.0 mph 86 % 0.00 in
19:46 58.4 °F 54.2 °F 30.02 in North 2.0 mph 8.0 mph 86 % 0.00 in
19:51 58.2 °F 54.0 °F 30.02 in NNW 5.0 mph 9.0 mph 86 % 0.00 in
19:56 57.8 °F 53.0 °F 30.02 in North 8.0 mph 15.0 mph 84 % 0.00 in
20:01 57.5 °F 52.4 °F 30.02 in NE 3.7 mph 11.5 mph 83 % 0.00 in
20:06 57.3 °F 52.5 °F 30.03 in NNE 6.9 mph 10.0 mph 84 % 0.00 in
20:11 57.0 °F 51.9 °F 30.04 in North 8.8 mph 15.0 mph 83 % 0.00 in
20:16 56.6 °F 51.2 °F 30.04 in NNE 7.6 mph 11.5 mph 82 % 0.00 in
20:21 56.3 °F 50.9 °F 30.05 in NNE 6.5 mph 12.0 mph 82 % 0.00 in
20:26 56.2 °F 51.1 °F 30.05 in North 5.0 mph 7.0 mph 83 % 0.00 in
20:31 56.0 °F 50.9 °F 30.06 in NNE 6.3 mph 12.7 mph 83 % 0.00 in
20:36 55.8 °F 50.4 °F 30.06 in North 7.0 mph 11.5 mph 82 % 0.00 in
20:41 55.6 °F 49.5 °F 30.06 in North 3.3 mph 5.8 mph 80 % 0.00 in
20:46 55.4 °F 49.7 °F 30.07 in NNE 6.7 mph 13.8 mph 81 % 0.00 in
20:47 55.4 °F 49.7 °F 30.07 in NNW 6.8 mph 13.8 mph 81 % 0.00 in
20:52 55.2 °F 49.1 °F 30.07 in NNE 7.7 mph 11.5 mph 80 % 0.00 in
20:57 54.9 °F 48.2 °F 30.07 in North 6.7 mph 11.5 mph 78 % 0.00 in
21:02 54.6 °F 48.2 °F 30.08 in North 11.6 mph 18.4 mph 79 % 0.00 in
21:07 54.3 °F 47.6 °F 30.08 in NNE 8.6 mph 15.0 mph 78 % 0.00 in
21:12 54.1 °F 47.4 °F 30.08 in NNE 8.8 mph 16.1 mph 78 % 0.00 in
21:17 53.9 °F 47.5 °F 30.08 in NE 6.1 mph 10.4 mph 79 % 0.00 in
21:22 53.6 °F 47.2 °F 30.08 in North 6.3 mph 10.4 mph 79 % 0.00 in
21:27 53.4 °F 47.4 °F 30.09 in North 4.7 mph 6.9 mph 80 % 0.00 in
21:32 53.3 °F 47.6 °F 30.09 in NNW 5.2 mph 7.0 mph 81 % 0.00 in
21:37 53.1 °F 47.4 °F 30.09 in NNW 2.4 mph 4.6 mph 81 % 0.00 in
21:42 53.1 °F 47.7 °F 30.09 in WNW 4.2 mph 8.1 mph 82 % 0.00 in
21:47 52.9 °F 47.6 °F 30.09 in NNW 6.1 mph 9.2 mph 82 % 0.00 in
21:52 52.8 °F 47.8 °F 30.09 in NW 6.8 mph 11.5 mph 83 % 0.00 in
21:57 52.5 °F 47.2 °F 30.09 in NNW 4.2 mph 6.9 mph 82 % 0.00 in
22:02 52.4 °F 47.1 °F 30.09 in NNW 0.5 mph 1.2 mph 82 % 0.00 in
22:07 52.2 °F 47.2 °F 30.09 in NNW 2.3 mph 5.8 mph 83 % 0.00 in
22:13 52.1 °F 47.1 °F 30.09 in NNE 4.5 mph 9.2 mph 83 % 0.00 in
22:18 51.9 °F 46.9 °F 30.09 in North 4.6 mph 11.0 mph 83 % 0.00 in
22:23 51.6 °F 46.3 °F 29.85 in NNE 5.3 mph 13.0 mph 82 % 0.00 in
22:28 51.5 °F 46.2 °F 30.09 in NNE 6.5 mph 9.2 mph 82 % 0.00 in
22:33 51.4 °F 45.8 °F 30.09 in NNE 7.2 mph 12.0 mph 81 % 0.00 in
22:38 51.3 °F 45.3 °F 30.09 in North 6.1 mph 12.7 mph 80 % 0.00 in
22:43 51.2 °F 45.2 °F 30.10 in NNE 4.5 mph 12.7 mph 80 % 0.00 in
22:48 51.0 °F 45.0 °F 30.09 in NE 4.1 mph 8.1 mph 80 % 0.00 in
22:53 50.9 °F 44.9 °F 30.09 in NNE 5.6 mph 10.4 mph 80 % 0.00 in
22:58 50.6 °F 44.7 °F 30.09 in North 5.5 mph 9.2 mph 80 % 0.00 in
23:04 50.5 °F 44.6 °F 30.10 in North 6.5 mph 10.4 mph 80 % 0.00 in
23:09 50.4 °F 44.8 °F 30.10 in North 5.2 mph 8.0 mph 81 % 0.00 in
23:14 50.3 °F 45.0 °F 30.11 in North 6.4 mph 12.0 mph 82 % 0.00 in
23:19 50.1 °F 44.2 °F 30.11 in NNE 6.9 mph 11.5 mph 80 % 0.00 in
23:24 50.0 °F 44.1 °F 30.11 in North 5.3 mph 11.5 mph 80 % 0.00 in
23:29 49.9 °F 43.6 °F 30.11 in North 5.1 mph 10.4 mph 79 % 0.00 in
23:34 49.7 °F 43.5 °F 30.11 in NE 6.7 mph 11.5 mph 79 % 0.00 in
23:39 49.6 °F 43.0 °F 30.11 in North 4.8 mph 8.1 mph 78 % 0.00 in
23:44 49.5 °F 42.9 °F 30.11 in NNE 6.3 mph 11.0 mph 78 % 0.00 in
23:49 49.4 °F 42.8 °F 30.11 in NNE 6.6 mph 15.0 mph 78 % 0.00 in
23:54 49.3 °F 42.7 °F 30.12 in North 4.5 mph 9.0 mph 78 % 0.00 in
23:59 49.2 °F 42.6 °F 30.11 in North 5.5 mph 10.0 mph 78 % 0.00 in
Crab Meadow Weather
Compliments of Weather Underground - 3 mb

Script developed by  Jim McMurry - jmcmurry@mwt.net Adapted for the template by  Wim van der Kuil - Leuven-Template.eu

Weather Terms: Waterspout - In general, a tornado occurring over water. Specifically, it refers to a small, relatively weak rotating column of air over water beneath a towering cumulus or cumulonimbus cloud. They occasionally occur over Lake Michigan in late summer with unusually cold air aloft.